Location: Linz
(48.3300°N, 14.3000°E)
Time: 08:41:35
(UTC+01:00)

N. Korean satellite - Pass Details

Date: 18 November 2017
Orbit: 460 x 514 km, 97.2° (Epoch: 23 November)

Event Time Altitude Azimuth Distance (km) Brightness Sun altitude
Rises 18:30:00 0° 188° (S) 2,488 10.3 -21.2°
Reaches altitude 10° 18:32:10 10° 198° (SSW) 1,624 9.5 -21.6°
Maximum altitude 18:35:20 32° 263° (W) 832 8.3 -22.1°
Drops below altitude 10° 18:38:35 10° 329° (NNW) 1,661 9.6 -22.6°
Sets 18:40:49 0° 339° (NNW) 2,556 10.4 -23.0°
